NWS Home NWS Lubbock West Texas Mesonet North Sector Latest Conditions as of 0944 PM, Sun Sep 15, 2019

Latest   N   C   S   Daily Sum   3hrΔ   24hrΔ   Soil Data 
Site Map   24hr Precip   72hr Precip   Google Plot


Station Time of Last Temp Dew Pt. RH Wind Direction Wind Speed Wind Gust Max Wind Max Temp Min Temp Max RH Min RH Altimeter 1HR Rain Today's Rain Solar Rad
Adrian 6WSW  09:40 PM 72 50 46% S1114 28 mph 210° @ 1159 AM 86 63 73 29 30.18" 0 0.00 0
Aiken 3WSW  09:40 PM 69 59 70% SE67 23 mph 159° @ 0514 PM 88 61 92 29 30.15" 0 0.00 0
Amarillo 15NNW   09:40 PM 75 52 45% S1010 28 mph 166° @ 0505 PM 92 61 85 27 30.12" 0 0.00 0
Amarillo 7SSE  09:40 PM 72 51 48% SE78 27 mph 181° @ 0401 PM 91 61 84 25 30.16" 0 0.00 0
Amarillo 9NNE  09:40 PM 73 52 48% S78 31 mph 188° @ 0146 PM 90 63 81 28 30.12" 0 0.00 0
Amherst 1NE  09:40 PM 70 55 60% S34 23 mph 148° @ 0235 PM 86 61 90 32 30.15" 0 0.00 0
Bootleg 11WNW  09:40 PM 72 47 41% S1011 31 mph 171° @ 0344 PM 87 62 73 26 30.21" 0 0.00 0
Boys Ranch 1WSW  09:40 PM 75 50 42% S56 26 mph 178° @ 0508 PM 93 62 80 26 30.12" 0 0.00 0
Canadian 6E  09:40 PM 76 56 50% SE910 26 mph 180° @ 0153 PM 96 67 75 26 30.06" 0 0.00 0
Caprock Canyons State Park  09:40 PM 74 57 57% S66 23 mph 140° @ 0432 PM 91 69 67 24 30.11" 0 0.00 0
Childress 2NNE  09:40 PM 78 59 53% SE910 22 mph 153° @ 0350 PM 94 68 82 25 30.06" 0 0.00 0
Clarendon 2WSW  09:40 PM 80 50 36% SE1115 24 mph 184° @ 0305 PM 92 65 75 23 30.11" 0 0.00 0
Claude 12SW  09:40 PM 75 52 44% S55 24 mph 199° @ 0227 PM 90 69 63 25 30.14" 0 0.00 0
Dimmitt 2NE  09:40 PM 70 57 65% S89 26 mph 197° @ 0115 PM 85 61 89 33 30.16" 0 0.00 0
Dozier 3W  09:40 PM 78 57 48% SE46 30 mph 136° @ 0404 PM 95 64 92 27 30.09" 0 0.00 0
Earth 9WSW  09:40 PM 69 54 61% S1111 23 mph 186° @ 1140 AM 89 59 94 27 30.17" 0 0.00 0
Endee NM 2SW  09:40 PM 74 50 42% SE910 28 mph 185° @ 0354 PM 89 62 74 26 30.15" 0 0.00 0
Estelline 3SSE  09:40 PM 80 60 50% SE89 22 mph 136° @ 0327 PM 95 66 90 26 30.06" 0 0.00 0
Floydada 2NNE  09:40 PM 72 56 58% SE78 23 mph 194° @ 0220 PM 90 64 80 25 30.13" 0 0.00 0
Friona 2NE  09:40 PM 68 52 58% SE78 27 mph 181° @ 0320 PM 86 58 91 27 30.18" 0 0.00 0
Fritch 1WNW  09:40 PM 78 50 38% S810 29 mph 211° @ 0418 PM 92 68 68 26 30.11" 0 0.00 0
Goodlett 3W  09:40 PM 81 61 53% SE89 21 mph 165° @ 0335 PM 95 69 82 24 30.04" 0 0.00 0
Goodnight  09:40 PM 74 54 49% SE67 31 mph 191° @ 0134 PM 92 62 84 27 30.14" 0 0.00 0
Happy 1E  09:40 PM 67 58 72% S77 25 mph 216° @ 1255 PM 87 61 89 31 30.16" 0 0.00 0
Hart 3N  09:40 PM 69 56 65% SE57 22 mph 182° @ 0145 PM 87 60 90 27 30.16" 0 0.00 0
Hereford 2NW  09:40 PM 73 53 51% SE79 26 mph 176° @ 0345 PM 87 59 80 27 30.16" 0 0.00 0
Lake McClellan 2NW  09:40 PM 76 52 43% SE810 27 mph 166° @ 0247 PM 92 68 67 26 30.14" 0 0.00 0
Lesley 2S  09:40 PM 79 56 46% SE88 23 mph 168° @ 0419 PM 97 66 78 22 30.06" 0 0.00 0
McLean 1E  09:40 PM 76 53 46% SE810 23 mph 190° @ 0310 PM 91 67 74 28 30.10" 0 0.00 0
Memphis 1NE  09:40 PM 79 54 45% SE56 22 mph 118° @ 0420 PM 94 63 88 24 30.06" 0 0.00 0
Muleshoe 2SSW  09:40 PM 69 51 55% S89 26 mph 167° @ 0225 PM 87 59 89 26 30.16" 0 0.00 0
Northfield 1S  09:40 PM 81 55 43% SE1013 20 mph 227° @ 1150 AM 95 68 73 23 30.06" 0 0.00 0
Odell 4ENE  09:40 PM 82 64 53% SE1011 30 mph 149° @ 0325 PM 98 72 75 22 30.05" 0 0.00 0
Olton 6S  09:40 PM 71 53 53% S1011 22 mph 162° @ 0225 PM 88 61 88 26 30.14" 0 0.00 0
Palo Duro 4E (JA Ranch)  09:40 PM 71 59 66% S23 22 mph 188° @ 0227 PM 93 59 95 28 30.09" 0 0.00 0
Palo Duro Canyon SP Floor  09:40 PM 79 54 41% SE56 26 mph 134° @ 0341 PM 94 61 87 24 30.10" 0 0.00 0
Palo Duro Canyon State Park Rim  09:40 PM 77 52 41% SE45 24 mph 197° @ 0403 PM 91 64 77 26 30.15" 0 0.00 0
Palo Duro Reservoir 1NW   09:40 PM 75 53 46% S1112 31 mph 204° @ 1111 AM 95 63 77 24 30.09" 0 0.00 0
Pampa 2E  09:40 PM 74 52 48% S911 26 mph 189° @ 0420 PM 90 64 79 28 30.12" 0 0.00 0
Panhandle 1SSW  09:40 PM 68 54 60% S89 27 mph 172° @ 0408 PM 91 59 89 29 30.15" 0 0.00 0
Plainview 1S  09:40 PM 74 56 54% SE35 20 mph 155° @ 0445 PM 89 62 90 29 30.13" 0 0.00 0
Romero 11 SSW  09:40 PM 75 50 41% S1011 26 mph 192° @ 0204 PM 88 60 83 30 30.14" 0 0.00 0
Silverton 7ESE  09:40 PM 70 55 61% SE1012 20 mph 147° @ 0400 PM 90 64 82 26 30.13" 0 0.00 0
South Plains 3ENE  09:40 PM 71 57 60% SE67 22 mph 158° @ 0505 PM 91 61 95 26 30.13" 0 0.00 0
Stinnett 1NNW  09:40 PM 78 51 40% S89 27 mph 235° @ 1211 PM 93 64 75 26 30.13" 0 0.00 0
Stratford 4WNW  09:40 PM 72 52 50% S810 32 mph 185° @ 0432 PM 91 61 80 28 30.13" 0 0.00 0
Tulia 2ENE  09:40 PM 71 57 63% S56 23 mph 209° @ 1235 PM 87 62 90 32 30.14" 0 0.00 0
Turkey 2WSW  09:40 PM 76 59 56% SE78 23 mph 178° @ 1245 PM 92 68 81 28 30.08" 0 0.00 0
Umbarger 3NNE  09:40 PM 70 50 49% S77 29 mph 180° @ 0436 PM 89 64 76 25 30.16" 0 0.00 0
Vigo Park  09:40 PM 72 58 61% SE78 24 mph 198° @ 1259 PM 89 61 93 27 30.15" 0 0.00 0

West Texas Mesonet Home   Site Map/Menu  NWS Lubbock Soil Data  Daily Summary Page  24hr Precip  72hr Precip  Google Plot